Regional Weather Roundup
Issued by NWS Midland/Odessa, TX

Home | Current Version | Previous Version | Text Only | Print | Product List | Glossary On
Versions: 1 2 3 4 5 6 7 8 9 10 11 12 13 14 15 16 17 18 19 20 21 22 23 24 25 26 27 28 29 30 31 32 33 34 35 36 37 38 39 40 41 42 43 44 45 46 47 48 49 50
000
ASUS44 KMAF 252110
RWRMAF
MIDLAND AREA WEATHER ROUNDUP
NATIONAL WEATHER SERVICE MIDLAND TX
400 PM CDT SAT OCT 25 2014

...IN SOUTHWEST TEXAS AND SOUTHEAST NEW MEXICO...

CITY           SKY/WX    TMP DP  RH WIND       PRES   REMARKS
ALPINE         SUNNY     81  47  30 SW9       30.27F
ANDREWS        FAIR      85  50  29 SW5       30.13F
ARTESIA        NOT AVBL
BIG SPRING     SUNNY     87  43  21 S9        30.13F
CARLSBAD       SUNNY     84  50  30 S6        30.10F
DRYDEN           N/A     86  55  34 VRB5      30.09F
FORT STOCKTON  SUNNY     87  48  25 S3        30.11F
GUAD PASS      SUNNY     78  42  27 SW17G24   30.26F
HOBBS          SUNNY     82  46  28 S8G16     30.15F
MARFA          SUNNY     79  46  31 SE9       30.25F
MIDLAND AIRPK  SUNNY     88  46  23 S7        30.12S
MIDLAND INTL   SUNNY     87  49  26 SE7       30.10F
ODESSA         SUNNY     87  46  24 SW8       30.12F
PECOS          SUNNY     87  50  27 S5        30.09F
PRESIDIO       FAIR      85  48  27 SE3       30.12F
SEMINOLE       SUNNY     84  49  29 S8        30.14F
SNYDER         SUNNY     83  53  35 S9        30.12F
WINK           SUNNY     86  48  26 S7        30.09F
$$
...OTHER STATIONS IN TEXAS...

CITY           SKY/WX    TMP DP  RH WIND       PRES   REMARKS
ABILENE        SUNNY     88  50  27 SW10      30.10F
AMARILLO       SUNNY     85  48  27 S18       30.11F
AUSTIN         MOSUNNY   88  57  34 CALM      30.08F
BROWNSVILLE    SUNNY     85  67  54 E8        30.08F
CORPUS CHRISTI MOSUNNY   83  63  50 E8        30.09F
DALLAS FTW     SUNNY     88  59  37 S7        30.06F
DEL RIO        SUNNY     86  58  38 S13       30.07F
EL PASO        SUNNY     84  41  21 CALM      30.16F
HOUSTON INT    SUNNY     84  56  38 CALM      30.10F
LUBBOCK        SUNNY     84  49  29 S10       30.12F
SAN ANGELO     SUNNY     89  48  24 S9        30.09F
SAN ANTONIO    SUNNY     87  55  33 VRB5      30.10F
WACO           SUNNY     86  60  41 S6        30.08F
WICHITA FALLS  NOT AVBL
$$
...OTHER LOCATIONS IN NEW MEXICO...

CITY           SKY/WX    TMP DP  RH WIND       PRES   REMARKS
ALAMAGORDO     NOT AVBL
ALBUQUERQUE    SUNNY     76  36  23 VRB7      30.23F
CANNON AFB     SUNNY     85  42  22 SW13      30.14F
CLOVIS         SUNNY     84  41  21 SW13      30.16F
HOLLOMAN AFB   MOSUNNY   82  42  24 W2        30.16F
ROSWELL        SUNNY     82  52  35 SE9       30.12F
RUIDOSO        SUNNY     73  37  27 N7        30.33F
SANTA FE       SUNNY     76  27  16 VRB5      30.26F
TRUTH OR CONSE SUNNY     80  36  20 VRB7      30.19F
TUCUMCARI      SUNNY     88  38  17 SW15G25   30.08F
$$



USA.gov is the U.S. government's official web portal to all federal, state and local government web resources and services.